Location: Austin
(30.3000°N, 97.7500°W)
Time: 01:23:46
(UTC-05:00)

Cosmos 1400 Rocket - Pass Details

Date: 11 June 2024
Orbit: 501 x 544 km, 81.2° (Epoch: 21 June)

Event Time Altitude Azimuth Distance (km) Brightness Sun altitude
Exits shadow 23:09:05 43° 346° (NNW) 749 3.8 -26.6°
Drops below altitude 10° 23:11:50 10° 2° (N) 1,768 6.0 -27.0°
Sets 23:13:58 0° 5° (N) 2,652 7.0 -27.2°
